www.pogodaiklimat.ru

Погода и климат >> Архив погоды >> Россия >> Якутия >> Оймякон


АРХИВ ПОГОДЫ в Оймяконе

Время (UTC), дата Ветер
(напр.,м/с)
 
Видим.   Явления Облачность Т
(С)
Тd
(С)
f
(%)
Тe
(С)
Тes
(С)
Комфортность P
(гПа)
Po
(гПа)
Тmin
(С)
Tmax
(С)
R
(мм)
R24
(мм)
S
(см)
00 12.12 штиль 0 50 км {снег} 10/0
[Ac trans Cs]
-42.1 -44.3 79 -42 -42 опасность
обморожения
1051.1 942.9 -42.1
03 12.12 штиль 0 50 км 10/0
[Ac trans Cs]
-39.3 -41.6 79 -39 -39 опасность
обморожения
1049.5 942.5
06 12.12 штиль 0 50 км 10/0
[Ac As Cs]
-38.3 -40.9 76 -38 -38 опасность
обморожения
1048.8 942.4
09 12.12 С 1 50 км слабый снег 10/0
[Ac As Cs]
-38.0 -40.9 74 -43 -43 опасность
обморожения
1049.0 942.7 -37.7 0.0
12 12.12 СВ 1 50 км {снег} 10/0
[Ac trans Cs]
-38.2 -40.3 80 -43 -43 опасность
обморожения
1048.8 942.6
15 12.12 штиль 0 10 км слабый снег 10/0
[Ac trans Cs]
-37.0 -39.1 81 -37 -37 опасность
обморожения
1047.8 942.1
18 12.12 штиль 0 50 км {снег} 8/0
[Ac trans Ci fib]
-39.5 -41.6 80 -40 -40 опасность
обморожения
1048.9 942.0
21 12.12 штиль 0 50 км 8/0
[Ac trans Ci fib]
-38.1 -40.3 80 -38 -38 опасность
обморожения
1047.8 941.7 -39.6 0.2 21
00 13.12 штиль 0 50 км слабый снег 9/8 900 м
[Sc Ac trans Ci fib]
-36.0 -38.4 78 -36 -36 опасность
обморожения
1046.7 941.5
03 13.12 СВ 1 10 км слабый снег 10/10 450 м
[St]
-35.1 -37.4 79 -40 -40 опасность
обморожения
1044.7 940.2
06 13.12 СВ 1 4000 м слабый снег 10/6 600 м
[St Cs]
-35.3 -37.7 79 -40 -40 опасность
обморожения
1044.5 939.7
09 13.12 С 1 20 км слабый снег 10/10 600 м
[St]
-35.1 -37.4 79 -40 -40 опасность
обморожения
1043.4 939.0 -34.9 0.2
12 13.12 СВ 1 20 км слабый снег 10/10 600 м
[St]
-34.5 -36.7 80 -39 -39 опасность
обморожения
1042.3 938.2
15 13.12 СВ 1 20 км слабый снег 10/10 600 м
[St]
-34.4 -36.7 79 -39 -39 опасность
обморожения
1041.3 937.3
18 13.12 СВ 1 20 км слабый снег 10/10 600 м
[St]
-34.1 -36.4 80 -39 -39 опасность
обморожения
1039.8 936.2
21 13.12 СВ 2 50 км слабый снег 8/3 1000 м
[Sc Ac trans Cs]
-34.8 -37.0 80 -43 -43 опасность
обморожения
1040.0 935.9 -35.1 0.7 21
00 14.12 СВ 1 20 км слабый снег 8/3 1000 м
[Sc Ac trans Cs]
-35.8 -38.0 80 -41 -41 опасность
обморожения
1039.6 935.2 -36.0
03 14.12 СВ 1 50 км слабый снег 8/1 1000 м
[Sc Ac trans Ci fib]
-37.4 -39.5 81 -42 -42 опасность
обморожения
1040.1 935.0
06 14.12 З 1 50 км {снег} 6/1 1000 м
[Sc Ci fib]
-43.1 -44.9 82 -49 -49 опасность
обморожения
1042.6 934.9
09 14.12 Ю 1 50 км 3/0
[Ci fib]
-45.0 -47.1 79 -51 -51 опасность
обморожения
1042.8 934.2 -34.5 0.2
12 14.12 штиль 0 50 км ледяные иглы 3/0
[Ci fib]
-46.7 -48.9 78 -47 -47 опасность
обморожения
1043.1 933.7
15 14.12 Ю 1 50 км ледяные иглы 8/0
[Ci fib]
-45.9 -48.0 79 -52 -52 опасность
обморожения
1040.6 931.7
18 14.12 Ю 1 50 км 4/0
[Ci fib]
-43.2 -46.1 73 -49 -49 опасность
обморожения
1036.9 929.7
21 14.12 СВ 1 20 км слабый снег 10/0
[Ac As]
-42.0 -44.3 78 -47 -47 опасность
обморожения
1034.2 927.7 -46.8 0.0 22
00 15.12 СЗ 1 20 км слабый снег 10/0
[Ac As]
-38.7 -40.7 81 -44 -44 опасность
обморожения
1030.9 926.3
03 15.12 штиль 0 10 км слабый снег 10/0
[Ac As Ci fib]
-36.8 -39.1 79 -37 -37 опасность
обморожения
1028.8 925.0
06 15.12 штиль 0 20 км слабый снег 10/0
[Ac As Cs]
-36.0 -38.4 78 -36 -36 опасность
обморожения
1027.3 924.1
09 15.12 штиль 0 10 км слабый снег 10/0
[Ac As Cs]
-35.5 -37.7 80 -36 -36 опасность
обморожения
1027.2 924.2 -35.3 0.8
12 15.12 штиль 0 20 км слабый снег 10/0
[Cs]
-37.4 -39.5 81 -37 -37 опасность
обморожения
1027.5 923.6
15 15.12 штиль 0 50 км {снег} 5/0
[Ci fib]
-43.9 -45.6 83 -44 -44 опасность
обморожения
1031.0 924.0
18 15.12 штиль 0 50 км {снег} 3/0
[Ci fib]
-45.7 -48.0 77 -46 -46 опасность
обморожения
1031.8 924.1
21 15.12 штиль 0 50 км 6/0
[Ci fib]
-44.7 -47.1 77 -45 -45 опасность
обморожения
1031.6 924.4 -46.3 0.0 21
00 16.12 штиль 0 50 км 8/0
[Ac trans Ci fib]
-42.9 -44.9 81 -43 -43 опасность
обморожения
1031.7 925.1
03 16.12 СВ 2 50 км 6/0
[Ac trans Cc]
-45.0 -47.1 79 -55 -55 опасность
обморожения
1032.5 924.9
06 16.12 штиль 0 4000 м дымка 8/0
[Ac trans Ci fib]
-44.8 -47.6 73 -45 -45 опасность
обморожения
1032.6 925.0
09 16.12 штиль 0 10 км слабый снег 10/0
[Ac trans Cs]
-40.7 -42.6 82 -41 -41 опасность
обморожения
1029.9 924.5 -40.7 0.2
12 16.12 СВ 2 10 км слабый снег 10/0
[As op]
-38.8 -41.1 79 -48 -48 опасность
обморожения
1028.9 924.3
15 16.12 СВ 1 10 км слабый снег 10/0
[As op]
-37.4 -39.5 81 -42 -42 опасность
обморожения
1027.6 923.7
18 16.12 З 1 10 км слабый снег 10/0
[Ac trans Cs]
-36.9 -39.1 80 -42 -42 опасность
обморожения
1026.8 923.2
21 16.12 штиль 0 20 км слабый снег 10/0
[Ac trans Cs]
-39.7 -41.6 82 -40 -40 опасность
обморожения
1027.7 923.0 -40.9 0.8 22
00 17.12 Ю 1 20 км слабый снег 10/0
[Ac trans Cs]
-40.1 -42.1 81 -45 -45 опасность
обморожения
1028.1 923.2
03 17.12 штиль 0 50 км {снег} 5/0
[Ci fib]
-39.3 -41.6 79 -39 -39 опасность
обморожения
1028.3 923.5
06 17.12 ЮЗ 1 50 км {снег} 1/0
[Ci fib]
-46.2 -48.0 82 -52 -52 опасность
обморожения
1031.4 923.5
09 17.12 штиль 0 50 км 1/0
[Ci fib]
-49.5 -51.1 83 -50 -50 опасность
обморожения
1034.3 924.5 -39.1 0.0
12 17.12 штиль 0 50 км ясно -50.6 -53.0 75 -51 -51 опасность
обморожения
1035.5 925.1
15 17.12 штиль 0 50 км 3/0
[Ci fib]
-51.0 -53.0 79 -51 -51 опасность
обморожения
1035.5 924.9
18 17.12 штиль 0 50 км 3/0
[Ci fib]
-51.6 -54.4 72 -52 -52 опасность
обморожения
1035.7 924.8
21 17.12 штиль 0 50 км 3/0
[Ci fib]
-51.6 -54.4 72 -52 -52 опасность
обморожения
1035.5 924.6 -51.6 22
00 18.12 СВ 1 50 км 8/0
[Ci fib]
-50.4 -53.0 74 -57 -57 опасность
обморожения
1034.2 924.0
03 18.12 СВ 1 50 км дым 9/0
[Ci fib]
-48.9 -51.6 73 -55 -55 опасность
обморожения
1032.3 923.0
06 18.12 штиль 0 10 км слабый снег 10/0
[Cs]
-47.3 -49.4 79 -47 -47 опасность
обморожения
1030.4 921.9
09 18.12 штиль 0 4000 м дымка {снег} 4/0
[Ci fib]
-50.3 -53.0 73 -50 -50 опасность
обморожения
1031.9 921.9 -47.1 0.0
12 18.12 штиль 0 4000 м дымка {снег} 3/0
[Ci fib]
-52.0 -54.4 75 -52 -52 опасность
обморожения
1031.9 921.2
15 18.12 штиль 0 10 км дым 3/0
[Ci fib]
-52.1 -54.4 76 -52 -52 опасность
обморожения
1031.4 920.7
18 18.12 штиль 0 10 км дым ясно -53.1 -56.3 68 -53 -53 опасность
обморожения
1030.9 919.8
21 18.12 штиль 0 20 км слабый снег 8/0
[Cs]
-51.7 -54.4 72 -52 -52 опасность
обморожения
1029.5 919.3 -53.3 0.0 22

 

Местоположение метеостанции Оймякон (Якутия, Россия): широта 63.25 долгота 143.10 высота над уровнем моря 740 м.

В архиве по умолчанию представлена погода в Оймяконе за последнюю неделю. Архивные данные за месяц целиком и за предыдущие месяцы, начиная с января 2011 года, Вы можете получить, выбрав интересующий диапазон дат из раскрывающегося списка и нажав кнопку "Ввод!".

Внимание! Время в таблицах - всемирное. Для получения местного времени необходимо прибавить поправку, которая в Оймяконе равна 10 ч.

Смотрите также архив погоды в соседних городах и на ближайших метеорологических станциях:

Погода в Агаякане (Якутия, Россия) (71 км)
Погода в Юртах (Якутия, Россия) (110 км)
Погода в Делянкире (Якутия, Россия) (140 км)
Погода в Усть-Нере (Якутия, Россия) (142 км)
Погода в Восточной (Якутия, Россия) (175 км)
Погода в Сусумане (Магаданская область, Россия) (258 км)
Погода в Колымской (Магаданская область, Россия) (278 км)
Погода в Уеге (Хабаровский край, Россия) (282 км)
Погода в Теплом Ключе (Якутия, Россия) (322 км)
Погода в Ягодной (Магаданская область, Россия) (340 км)

Пояснения к столбцам:

Ветер - указаны скорость ветра в м/с - средняя за 10 мин, порывы в срок и между сроками (в фигурных скобках) и направление, откуда дует ветер: С - северный, СВ - северо-восточный, В - восточный, ЮВ - юго-восточный, Ю - южный, ЮЗ - юго-западный, З - западный, СЗ - северо-западный.
Видимость - горизонтальная дальность видимости в метрах или километрах. При видимости от 1 до 10 км при отсутствии осадков обычно наблюдается дымка, при ухудшении видимости до 1 км и менее - туман. В сухую погоду видимость может ухудшаться дымом, пылью или мглою.
Явления - указаны атмосферные явления, наблюдавшиеся в срок или в последний час перед сроком; фигурными скобками обозначены явления, наблюдавшиеся между сроками (за 1-3 часа до срока); квадратными скобками обозначены град или гололедные отложения с указанием их диаметра в мм.
Облачность - указаны через наклонную черту общая и нижняя облачность в баллах и высота нижней границы облаков в метрах; квадратными скобками обозначены формы облаков: Ci - перистые, Cs - перисто-слоистые, Cc - перисто-кучевые, Ac - высококучевые, As - высокослоистые, Sc - слоисто-кучевые, Ns - слоисто-дождевые, Cu - кучевые, Cb - кучево-дождевые. Подробнее классификацию облаков см. в Атласе облаков (PDF).
T - Температура воздуха - температура, измеренная на высоте 2 м над землей.
Td - Температура точки росы - температура, при понижении до которой содержащийся в воздухе водяной пар достигнет насыщения.
f - Относительная влажность воздуха - влажноcть воздуха, измеренная на высоте 2 м над землей.
Te - Эффективная температура - температура, которую ощущает одетый по сезону человек в тени. Характеристика душности погоды. При расчете учитывается влияние влажности воздуха и скорости ветра на теплоощущения человека.
Tes - Эффективная температура на солнце - температура, которую ощущает человек, с поправкой на солнечный нагрев. Характеристика знойности погоды. Зависит от высоты солнца над горизонтом, облачности и скорости ветра. Ночью, в пасмурную погоду, а также при ветре 12 м/с и более поправка равна нулю.
P - Атмосферное давление - приведенное к уровню моря атмосферное давление.
Po - Атмосферное давление - измеренное на уровне метеостанции атмосферное давление.
Tmin - Минимальная температура - минимум температуры воздуха на высоте 2 м над землей.
Tmax - Максимальная температура - максимум температуры воздуха на высоте 2 м над землей.
R - Количество осадков - Количество выпавших осадков за период времени, мм. При наведении курсора мыши на число - период времени, за который выпало указанное количество осадков.
R24 - Количество осадков - Количество выпавших осадков за 24 часа, мм.
S - Снежный покров - Высота снежного покрова, см. При наведении курсора мыши на число - состояние снежного покрова и степень покрытия местности в баллах.